Tracking 29969 objects as of 6-Dec-2024
HD Live streaming from Space Station
objects crossing your sky now

EKRAN 2 DEB

Track EKRAN 2 DEB now!


NORAD ID: 12996
Int'l Code: 1977-092J
Perigee: 35,770.1 km
Apogee: 35,947.4 km
Inclination: 5.7 °
Period: 1,439.4 minutes
Semi major axis: 42229 km
RCS: 0.3162 m2 (medium)
Launch date: September 20, 1977
Source: Commonwealth of Independent States (former USSR) (CIS)
Launch site: TYURATAM MISSILE AND SPACE COMPLEX (TTMTR)

Note: This is SATELLITE DEBRIS
Your satellite tracking list
Your tracking list is empty




NASA's NSSDC Master Catalog

Two Line Element Set (TLE):
1 12996U 77092J   24340.88258481  .00000158  00000-0  00000-0 0  9993
2 12996   5.7414 282.2639 0020995 289.4910 213.0303  1.00040292 78926
Source of the keplerian elements: AFSPC